Location: Tauranga
(37.6860°S, 176.1670°E)
Time: 00:41:40
(UTC+12:00)

Terra - Pass Details

Date: 24 January 2019
Orbit: 702 x 703 km, 98.2° (Epoch: 20 April)

Event Time Altitude Azimuth Distance (km) Brightness Sun altitude
Rises 23:12:50 0° 154° (SSE) 3,126 5.5 -24.9°
Reaches altitude 10° 23:15:28 10° 141° (SE) 2,198 4.5 -25.2°
Enters shadow 23:17:30 20° 120° (ESE) 1,629 3.6 -25.4°
